Location: Cella
(44.7333°N, 10.5667°E)
Time: 08:47:17
(UTC+00:00)

Cosmos 1777 Rocket - Pass Details

Date: 26 June 2021
Orbit: 757 x 776 km, 74.0° (Epoch: 28 July)

Event Time Altitude Azimuth Distance (km) Brightness Sun altitude
Rises 21:12:03 0° 341° (NNW) 3,264 8.9 -15.9°
Reaches altitude 10° 21:14:28 10° 344° (NNW) 2,333 7.7 -16.1°
Maximum altitude 21:19:45 66° 67° (ENE) 846 4.1 -16.5°
Enters shadow 21:22:31 28° 142° (SE) 1,424 4.8 -16.8°
